Regional Weather Roundup
Issued by NWS

Home | Current Version | Previous Version | Graphics & Text | Print | Product List | Glossary On
Versions: 1 2 3 4 5 6 7 8 9 10 11 12 13 14 15 16 17 18 19 20 21 22 23 24 25 26 27 28 29 30 31 32 33 34 35 36 37 38 39 40 41 42 43 44 45 46 47 48 49 50
089
ASUS45 KTFX 201510
RWRMT
MONTANA REGIONAL WEATHER ROUNDUP
NATIONAL WEATHER SERVICE GREAT FALLS MT
900 AM MDT WED SEP 20 2017

NOTE: "FAIR" INDICATES FEW OR NO CLOUDS BELOW 12000 FEET WITH NO
SIGNIFICANT WEATHER AND/OR OBSTRUCTIONS TO VISIBILITY.

MTZ001>007-043-201600-
WEST OF THE DIVIDE

CITY           SKY/WX    TMP DP  RH WIND       PRES   REMARKS
KALISPELL      PTSUNNY   42  41  96 S10       29.60F
MISSOULA       CLOUDY    39  38  96 CALM      29.65F
BUTTE          CLOUDY    38  29  70 NE6       29.65F
MULLAN PASS    SNOW      30  29  96 CALM      29.59S VSB 1/4
ANACONDA         N/A     37  34  87 CALM      29.66F
DEER LODGE       N/A     37  36  93 SE5       29.67F
EUREKA           N/A     43  36  75 CALM      29.57F
HAMILTON         N/A     37  36  93 S5        29.65F
LIBBY            N/A     39  39 100 S3        29.60S
$$

MTZ008-052>055-201600-
SOUTHWEST MONTANA

CITY           SKY/WX    TMP DP  RH WIND       PRES   REMARKS
BOZEMAN        CLOUDY    44  35  70 SE7       29.67F
DILLON         CLOUDY    44  25  47 SW16G24   29.65F
W YELLOWSTONE  CLOUDY    34  30  86 S9G24     29.81F WCI  26
ENNIS          CLOUDY    43  27  52 S26G35    29.76F
$$

MTZ009-010-012-014-046-048-049-054-201600-
EAST SLOPES AND CENTRAL MONTANA

CITY           SKY/WX    TMP DP  RH WIND       PRES   REMARKS
CUT BANK       PTSUNNY   42  32  67 SW9       29.50S
GREAT FALLS    CLOUDY    48  26  42 SW20      29.56S
MALMSTROM AFB  CLOUDY    46  28  49 SW17      29.57S
HELENA         CLOUDY    44  34  67 S18G25    29.63F
BOWMANS CRNR     N/A     40  29  65 SW21      29.56R
CHOTEAU          N/A     46  28  49 W12       29.55S
FAIRFIELD        N/A     45  29  53 S15       29.54F
POWER            N/A     44  29  54 SW16      29.55R
RAYNESFORD     PTSUNNY   47  25  42 SW16G22   29.58S
ULM            PTSUNNY   48  26  42 SW16G23   29.58S
$$

MTZ011-013-016-021-045-047-050-051-201600-
NORTH CENTRAL MONTANA

CITY           SKY/WX    TMP DP  RH WIND       PRES   REMARKS
HAVRE          SUNNY     48  32  53 SW18G25   29.51F
LEWISTOWN      CLOUDY    47  25  42 SW12      29.62F
N BAR RANCH      N/A     50  21  32 W21G30    29.62F
CHINOOK          N/A     50  34  53 W3        29.51F
DENTON           N/A     45  29  54 S16       29.54F
GEYSER           N/A     48  23  37 SW26G43   29.55S
GRASS RANGE      N/A     51  24  34 SW29G37   29.55S
JUDITH GAP       N/A     42  27  55 S12G20    29.64S
WINIFRED         N/A     48  27  44 SW22G30   29.56F
$$

MTZ017>020-022>027-061-062-201600-
NORTHEAST MONTANA

CITY           SKY/WX    TMP DP  RH WIND       PRES   REMARKS
GLASGOW        SUNNY     49  37  63 SW9       29.56F
JORDAN           N/A     50  36  58 SW15      29.60F
SIDNEY         SUNNY     50  40  68 S12       29.64R
WOLF POINT     SUNNY     49  40  71 SW8       29.60S
MALTA          SUNNY     46  39  76 SW3       29.55F
PLENTYWOOD       N/A     48  37  66 S7        29.57R
POPLAR           N/A     48  37  66 SW6       29.61S
$$

MTZ028>42-056>058-201600-
SOUTHCENTRAL AND SOUTHEAST MONTANA

CITY           SKY/WX    TMP DP  RH WIND       PRES   REMARKS
BAKER          SUNNY     52  35  52 SW15      29.72S
BILLINGS       MOSUNNY   48  32  53 SW14      29.67F
LIVINGSTON     CLOUDY    47  28  47 SW15G25   29.67F
MILES CITY     SUNNY     50  38  63 S8        29.69S
BIG TIMBER     SUNNY     48  28  46 W20G29    29.68R
HARLOWTON        N/A     46  27  47 MISG      29.65F
LAUREL           N/A     50  34  53 SW10      29.69F
$$

REGIONAL REPORTS...DAKOTAS

CITY           SKY/WX    TMP DP  RH WIND       PRES   REMARKS
WILLISTON      SUNNY     50  41  71 SW15      29.61R
MINOT          SUNNY     55  44  66 S10       29.61R
DICKINSON      SUNNY     52  41  66 SW18      29.68R
BEACH            N/A     50  39  66 SW10G17   29.71S
CROSBY           N/A     48  43  81 SW14      29.57R
TIOGA          PTSUNNY   48  46  93 SW14      29.62R
WATFORD CITY     N/A     50  39  66 SW15G29   29.63R
BISMARCK       SUNNY     54  44  69 SW10      29.73R
GRAND FORKS    MOSUNNY   58  50  75 SW13      29.66R
FARGO          SUNNY     58  48  69 W12       29.72R
BUFFALO SD       N/A     51  39  63 W15       29.70R
RAPID CITY     SUNNY     50  39  66 S7        29.83R
$$

REGIONAL REPORTS...WYOMING/IDAHO/WASHINGTON

CITY           SKY/WX    TMP DP  RH WIND       PRES   REMARKS
GILLETTE       SUNNY     49  29  46 SW26G32   29.79F
SHERIDAN       LGT RAIN  57  19  22 W23G31    29.74F
BUFFALO WY     SUNNY     50  26  39 S15       29.80F
CODY           SUNNY     48  24  39 W12G20    29.79F
IDAHO FALLS    MOSUNNY   49  31  49 S18       29.84F
SALMON         LGT RAIN  44  36  73 S5        29.69R
BOISE          CLOUDY    54  33  45 SE16      29.73F
SPOKANE        CLOUDY    44  42  93 S3        29.62S
$$

REGIONAL REPORTS...ALBERTA

CITY           SKY/WX    TMP DP  RH WIND       PRES   REMARKS
EDMONTON       CLOUDY    41  39  93 N5          N/A
CALGARY        PTSUNNY   43  27  52 NW5       29.35S
LETHBRIDGE     MOSUNNY   46  28  49 W16       29.44S
MEDICINE HAT   MOSUNNY   46  32  57 SW21G29   29.40F
$$

REGIONAL REPORTS...SASKATCHEWAN

CITY           SKY/WX    TMP DP  RH WIND       PRES   REMARKS
SWIFT CURRENT  SUNNY     45  30  57 SW21G29   29.41F
REGINA         MOSUNNY   45  36  70 SW10      29.46F
SASKATOON      MOSUNNY   39  36  87 SW7       29.39F
$$




USA.gov is the U.S. government's official web portal to all federal, state and local government web resources and services.